| time (UTC) | temp F | wind direction | speed MPH | gust MPH | rain 1hr in | rain 24hr in | rain mn in | humidity % | barometer mb |
| 20260507073827 | 34 | 215 | 0.0 | 0.0 | 0.00 | 0.00 | 0.00 | 76 | 1015.9 |
| 20260507073323 | 35 | 215 | 0.0 | 0.0 | 0.00 | 0.00 | 0.00 | 76 | 1015.6 |
| 20260507072821 | 35 | 215 | 0.0 | 0.0 | 0.00 | 0.00 | 0.00 | 75 | 1015.8 |
| 20260507072318 | 35 | 215 | 0.0 | 0.0 | 0.00 | 0.00 | 0.00 | 75 | 1015.9 |
| 20260507071815 | 35 | 215 | 0.0 | 0.0 | 0.00 | 0.00 | 0.00 | 75 | 1016.1 |
| 20260507071312 | 35 | 215 | 0.0 | 0.0 | 0.00 | 0.00 | 0.00 | 73 | 1016.2 |
| 20260507070808 | 35 | 215 | 0.0 | 0.0 | 0.00 | 0.00 | 0.00 | 73 | 1016.3 |
| 20260507070306 | 35 | 215 | 0.0 | 0.0 | 0.00 | 0.00 | 0.00 | 73 | 1016.2 |
| 20260507065802 | 36 | 215 | 0.0 | 0.0 | 0.00 | 0.00 | 0.00 | 72 | 1016.3 |
| 20260507065259 | 36 | 215 | 0.0 | 0.0 | 0.00 | 0.00 | 0.00 | 72 | 1016.0 |
| 20260507064756 | 36 | 215 | 0.0 | 0.0 | 0.00 | 0.00 | 0.00 | 71 | 1016.3 |
| 20260507064255 | 35 | 215 | 0.0 | 0.0 | 0.00 | 0.00 | 0.00 | 73 | 1016.2 |
| 20260507063752 | 35 | 215 | 0.0 | 0.0 | 0.00 | 0.00 | 0.00 | 72 | 1016.3 |
| 20260507063249 | 35 | 215 | 0.0 | 0.0 | 0.00 | 0.00 | 0.00 | 72 | 1016.2 |
| 20260507062746 | 35 | 215 | 0.0 | 0.0 | 0.00 | 0.00 | 0.00 | 73 | 1016.5 |
| 20260507062243 | 35 | 186 | 0.0 | 0.0 | 0.00 | 0.00 | 0.00 | 74 | 1016.5 |
| 20260507061741 | 35 | 186 | 0.0 | 1.0 | 0.00 | 0.00 | 0.00 | 73 | 1016.6 |
| 20260507061238 | 35 | 228 | 0.0 | 0.0 | 0.00 | 0.00 | 0.00 | 74 | 1016.6 |
| 20260507060737 | 36 | 229 | 0.0 | 0.0 | 0.00 | 0.00 | 0.00 | 73 | 1016.4 |
| 20260507060233 | 36 | 229 | 0.0 | 0.0 | 0.00 | 0.00 | 0.00 | 73 | 1016.6 |
| 20260507055729 | 36 | 228 | 0.0 | 0.0 | 0.00 | 0.00 | 0.00 | 74 | 1016.6 |
| 20260507055225 | 36 | 228 | 0.0 | 0.0 | 0.00 | 0.00 | 0.00 | 73 | 1016.6 |
| 20260507054721 | 36 | 229 | 0.0 | 0.0 | 0.00 | 0.00 | 0.00 | 74 | 1016.7 |
| 20260507054218 | 36 | 228 | 0.0 | 0.0 | 0.00 | 0.00 | 0.00 | 74 | 1016.6 |
| 20260507053716 | 36 | 228 | 0.0 | 0.0 | 0.00 | 0.00 | 0.00 | 74 | 1016.6 |
| 20260507053213 | 36 | 229 | 0.0 | 0.0 | 0.00 | 0.00 | 0.00 | 74 | 1016.6 |
| 20260507052712 | 36 | 228 | 0.0 | 0.0 | 0.00 | 0.00 | 0.00 | 73 | 1016.7 |
| 20260507052208 | 37 | 228 | 0.0 | 0.0 | 0.00 | 0.00 | 0.00 | 73 | 1016.8 |
| 20260507051706 | 37 | 228 | 0.0 | 0.0 | 0.00 | 0.00 | 0.00 | 73 | 1016.8 |
| 20260507051202 | 37 | 228 | 0.0 | 0.0 | 0.00 | 0.00 | 0.00 | 72 | 1016.8 |
| 20260507050659 | 37 | 228 | 0.0 | 0.0 | 0.00 | 0.00 | 0.00 | 72 | 1016.8 |
| 20260507050156 | 38 | 228 | 0.0 | 0.0 | 0.00 | 0.00 | 0.00 | 72 | 1016.8 |
| 20260507045653 | 38 | 228 | 0.0 | 0.0 | 0.00 | 0.00 | 0.00 | 71 | 1016.6 |
| 20260507045149 | 38 | 228 | 0.0 | 0.0 | 0.00 | 0.00 | 0.00 | 70 | 1016.8 |
| 20260507044646 | 38 | 228 | 0.0 | 0.0 | 0.00 | 0.00 | 0.00 | 70 | 1017.0 |
| 20260507044143 | 38 | 215 | 0.0 | 0.0 | 0.00 | 0.00 | 0.00 | 69 | 1016.9 |
| 20260507043639 | 38 | 215 | 0.0 | 0.0 | 0.00 | 0.00 | 0.00 | 69 | 1017.1 |
| 20260507043136 | 38 | 214 | 0.0 | 0.0 | 0.00 | 0.00 | 0.00 | 68 | 1016.9 |
| 20260507042633 | 38 | 209 | 0.0 | 0.0 | 0.00 | 0.00 | 0.00 | 68 | 1017.0 |
| 20260507042127 | 37 | 209 | 0.0 | 0.0 | 0.00 | 0.00 | 0.00 | 69 | 1017.1 |
| 20260507041625 | 38 | 209 | 0.0 | 0.0 | 0.00 | 0.00 | 0.00 | 68 | 1017.2 |
| 20260507041121 | 38 | 217 | 0.0 | 0.0 | 0.00 | 0.00 | 0.00 | 67 | 1017.0 |
| 20260507040619 | 38 | 212 | 0.0 | 0.0 | 0.00 | 0.00 | 0.00 | 68 | 1016.9 |
| 20260507040115 | 38 | 214 | 0.0 | 0.0 | 0.00 | 0.00 | 0.00 | 67 | 1017.0 |
| 20260507035611 | 38 | 204 | 0.0 | 2.0 | 0.00 | 0.00 | 0.00 | 67 | 1017.1 |
| 20260507035107 | 37 | 205 | 0.0 | 0.0 | 0.00 | 0.00 | 0.00 | 69 | 1017.2 |
| 20260507034604 | 36 | 222 | 0.0 | 0.0 | 0.00 | 0.00 | 0.00 | 70 | 1017.2 |
| 20260507034102 | 36 | 244 | 0.0 | 0.0 | 0.00 | 0.00 | 0.00 | 71 | 1017.0 |
| 20260507033600 | 35 | 244 | 0.0 | 0.0 | 0.00 | 0.00 | 0.00 | 71 | 1017.1 |
| 20260507033056 | 35 | 244 | 0.0 | 0.0 | 0.00 | 0.00 | 0.00 | 71 | 1017.1 |
| 20260507032554 | 35 | 244 | 0.0 | 0.0 | 0.00 | 0.00 | 0.00 | 72 | 1017.2 |
| 20260507032050 | 36 | 244 | 0.0 | 0.0 | 0.00 | 0.00 | 0.00 | 71 | 1017.0 |
| 20260507031546 | 36 | 244 | 0.0 | 0.0 | 0.00 | 0.00 | 0.00 | 71 | 1017.4 |
| 20260507031043 | 36 | 243 | 0.0 | 0.0 | 0.00 | 0.00 | 0.00 | 70 | 1017.2 |
| 20260507030540 | 36 | 223 | 0.0 | 0.0 | 0.00 | 0.00 | 0.00 | 69 | 1017.5 |
| 20260507030038 | 36 | 205 | 0.0 | 1.0 | 0.00 | 0.00 | 0.00 | 69 | 1017.4 |
| 20260507025535 | 36 | 224 | 0.0 | 0.0 | 0.00 | 0.00 | 0.00 | 68 | 1017.3 |
| 20260507025032 | 37 | 246 | 0.0 | 0.0 | 0.00 | 0.00 | 0.00 | 68 | 1017.5 |
| 20260507024530 | 37 | 247 | 0.0 | 0.0 | 0.00 | 0.00 | 0.00 | 67 | 1017.4 |
| 20260507024026 | 37 | 257 | 0.0 | 0.0 | 0.00 | 0.00 | 0.00 | 66 | 1017.6 |
| 20260507023522 | 38 | 236 | 0.0 | 0.0 | 0.00 | 0.00 | 0.00 | 65 | 1017.5 |
| 20260507023020 | 38 | 214 | 0.0 | 0.0 | 0.00 | 0.00 | 0.00 | 63 | 1017.5 |
| 20260507022516 | 39 | 232 | 0.0 | 0.0 | 0.00 | 0.00 | 0.00 | 61 | 1017.3 |
| 20260507022012 | 40 | 262 | 0.0 | 1.0 | 0.00 | 0.00 | 0.00 | 61 | 1017.4 |
| 20260507021508 | 40 | 257 | 0.0 | 1.0 | 0.00 | 0.00 | 0.00 | 59 | 1017.3 |
| 20260507021005 | 41 | 258 | 1.0 | 1.0 | 0.00 | 0.00 | 0.00 | 58 | 1017.4 |
| 20260507020502 | 41 | 208 | 0.0 | 2.0 | 0.00 | 0.00 | 0.00 | 58 | 1017.5 |
| 20260507015959 | 42 | 223 | 0.0 | 1.0 | 0.00 | 0.00 | 0.00 | 56 | 1017.5 |
| 20260507015458 | 42 | 224 | 1.0 | 2.0 | 0.00 | 0.00 | 0.00 | 56 | 1017.3 |
| 20260507014954 | 42 | 222 | 1.0 | 1.0 | 0.00 | 0.00 | 0.00 | 55 | 1017.4 |
| 20260507014451 | 42 | 215 | 2.0 | 2.0 | 0.00 | 0.00 | 0.00 | 55 | 1017.2 |
| 20260507013946 | 42 | 251 | 2.0 | 2.0 | 0.00 | 0.00 | 0.00 | 54 | 1017.3 |
| 20260507013443 | 43 | 245 | 1.0 | 2.0 | 0.00 | 0.00 | 0.00 | 55 | 1017.2 |
| 20260507012941 | 43 | 249 | 0.0 | 1.0 | 0.00 | 0.00 | 0.00 | 55 | 1017.4 |
| 20260507012438 | 43 | 210 | 3.0 | 3.0 | 0.00 | 0.00 | 0.00 | 54 | 1017.3 |
| 20260507011934 | 43 | 241 | 2.0 | 3.0 | 0.00 | 0.00 | 0.00 | 54 | 1017.3 |
| 20260507011431 | 43 | 223 | 2.0 | 5.0 | 0.00 | 0.00 | 0.00 | 54 | 1017.3 |
| 20260507010926 | 43 | 228 | 2.0 | 2.0 | 0.00 | 0.00 | 0.00 | 53 | 1017.3 |
| 20260507010421 | 43 | 233 | 1.0 | 2.0 | 0.00 | 0.00 | 0.00 | 53 | 1017.3 |
| 20260507005918 | 43 | 233 | 2.0 | 3.0 | 0.00 | 0.00 | 0.00 | 52 | 1017.4 |
| 20260507005415 | 43 | 248 | 3.0 | 3.0 | 0.00 | 0.00 | 0.00 | 52 | 1017.4 |
| 20260507004912 | 43 | 273 | 1.0 | 3.0 | 0.00 | 0.00 | 0.00 | 53 | 1017.4 |
| 20260507004409 | 43 | 223 | 3.0 | 7.0 | 0.00 | 0.00 | 0.00 | 53 | 1017.3 |
| 20260507003906 | 43 | 226 | 3.0 | 5.0 | 0.00 | 0.00 | 0.00 | 53 | 1017.3 |
| 20260507003401 | 43 | 157 | 0.0 | 2.0 | 0.00 | 0.00 | 0.00 | 54 | 1017.4 |
| 20260507002857 | 43 | 236 | 3.0 | 6.0 | 0.00 | 0.00 | 0.00 | 52 | 1017.3 |
| 20260507002353 | 43 | 241 | 3.0 | 5.0 | 0.00 | 0.00 | 0.00 | 52 | 1017.5 |
| 20260507001850 | 44 | 228 | 3.0 | 5.0 | 0.00 | 0.00 | 0.00 | 53 | 1017.4 |
| 20260507001347 | 44 | 149 | 5.0 | 8.0 | 0.00 | 0.00 | 0.00 | 52 | 1017.4 |
| 20260507000844 | 44 | 215 | 7.0 | 10.0 | 0.00 | 0.00 | 0.00 | 52 | 1017.7 |
| 20260507000339 | 44 | 142 | 3.0 | 7.0 | 0.00 | 0.00 | 0.00 | 52 | 1017.5 |
| 20260506235836 | 44 | 223 | 1.0 | 6.0 | 0.00 | 0.00 | 0.00 | 53 | 1017.3 |
| 20260506235333 | 44 | 243 | 5.0 | 6.0 | 0.00 | 0.00 | 0.00 | 52 | 1017.5 |
| 20260506234828 | 44 | 281 | 2.0 | 3.0 | 0.00 | 0.00 | 0.00 | 53 | 1017.7 |
| 20260506234326 | 43 | 240 | 3.0 | 5.0 | 0.00 | 0.00 | 0.00 | 52 | 1017.6 |
| 20260506233824 | 44 | 180 | 3.0 | 7.0 | 0.00 | 0.00 | 0.00 | 52 | 1017.5 |
| 20260506233319 | 44 | 173 | 4.0 | 5.0 | 0.00 | 0.00 | 0.00 | 53 | 1017.8 |
| 20260506232817 | 44 | 186 | 2.0 | 7.0 | 0.00 | 0.00 | 0.00 | 53 | 1017.5 |
| 20260506232312 | 44 | 242 | 1.0 | 6.0 | 0.00 | 0.00 | 0.00 | 54 | 1017.6 |
| 20260506231809 | 44 | 242 | 4.0 | 6.0 | 0.00 | 0.00 | 0.00 | 52 | 1017.6 |
| 20260506231307 | 44 | 138 | 3.0 | 9.0 | 0.00 | 0.00 | 0.00 | 52 | 1017.7 |
| 20260506230804 | 44 | 209 | 3.0 | 5.0 | 0.00 | 0.00 | 0.00 | 52 | 1017.7 |
| 20260506230301 | 44 | 222 | 3.0 | 7.0 | 0.00 | 0.00 | 0.00 | 53 | 1017.5 |
| 20260506225757 | 44 | 249 | 5.0 | 9.0 | 0.00 | 0.00 | 0.00 | 52 | 1017.7 |
| 20260506225254 | 44 | 235 | 1.0 | 8.0 | 0.00 | 0.00 | 0.00 | 51 | 1017.6 |
| 20260506224751 | 44 | 239 | 3.0 | 5.0 | 0.00 | 0.00 | 0.00 | 51 | 1017.7 |
| 20260506224248 | 44 | 226 | 4.0 | 6.0 | 0.00 | 0.00 | 0.00 | 52 | 1017.9 |
| 20260506223744 | 43 | 256 | 2.0 | 3.0 | 0.00 | 0.00 | 0.00 | 53 | 1017.8 |
| 20260506223240 | 44 | 227 | 5.0 | 10.0 | 0.00 | 0.00 | 0.00 | 52 | 1017.6 |
| 20260506222737 | 43 | 210 | 4.0 | 7.0 | 0.00 | 0.00 | 0.00 | 52 | 1017.8 |
| 20260506222232 | 43 | 216 | 4.0 | 9.0 | 0.00 | 0.00 | 0.00 | 52 | 1017.9 |
| 20260506221731 | 43 | 216 | 6.0 | 10.0 | 0.00 | 0.00 | 0.00 | 52 | 1017.9 |
| 20260506221229 | 44 | 166 | 4.0 | 6.0 | 0.00 | 0.00 | 0.00 | 52 | 1017.8 |
| 20260506220726 | 43 | 249 | 3.0 | 6.0 | 0.00 | 0.00 | 0.00 | 53 | 1018.1 |
| 20260506220220 | 43 | 230 | 4.0 | 6.0 | 0.00 | 0.00 | 0.00 | 54 | 1017.8 |
| 20260506215717 | 43 | 222 | 2.0 | 7.0 | 0.00 | 0.00 | 0.00 | 53 | 1017.9 |
| 20260506215212 | 43 | 271 | 4.0 | 6.0 | 0.00 | 0.00 | 0.00 | 53 | 1017.9 |
| 20260506214709 | 43 | 208 | 7.0 | 10.0 | 0.00 | 0.00 | 0.00 | 53 | 1018.1 |
| 20260506214207 | 43 | 151 | 2.0 | 9.0 | 0.00 | 0.00 | 0.00 | 54 | 1018.0 |
| 20260506213705 | 43 | 210 | 6.0 | 9.0 | 0.00 | 0.00 | 0.00 | 53 | 1018.1 |
| 20260506213202 | 43 | 206 | 2.0 | 6.0 | 0.00 | 0.00 | 0.00 | 54 | 1018.3 |
| 20260506212659 | 43 | 181 | 5.0 | 9.0 | 0.00 | 0.00 | 0.00 | 54 | 1018.3 |
| 20260506212154 | 43 | 168 | 5.0 | 6.0 | 0.00 | 0.00 | 0.00 | 54 | 1018.2 |
| 20260506211650 | 43 | 226 | 5.0 | 8.0 | 0.00 | 0.00 | 0.00 | 53 | 1018.3 |
| 20260506211147 | 43 | 255 | 5.0 | 8.0 | 0.00 | 0.00 | 0.00 | 53 | 1018.3 |
| 20260506210643 | 43 | 201 | 4.0 | 7.0 | 0.00 | 0.00 | 0.00 | 54 | 1018.3 |
| 20260506210140 | 42 | 164 | 7.0 | 9.0 | 0.00 | 0.00 | 0.00 | 53 | 1018.3 |
| 20260506205638 | 43 | 222 | 4.0 | 7.0 | 0.00 | 0.00 | 0.00 | 53 | 1018.3 |
| 20260506205132 | 42 | 193 | 4.0 | 7.0 | 0.00 | 0.00 | 0.00 | 53 | 1018.2 |
| 20260506204631 | 42 | 170 | 6.0 | 10.0 | 0.00 | 0.00 | 0.00 | 54 | 1018.4 |
| 20260506204127 | 43 | 168 | 4.0 | 6.0 | 0.00 | 0.00 | 0.00 | 53 | 1018.3 |
| 20260506203625 | 43 | 241 | 1.0 | 6.0 | 0.00 | 0.00 | 0.00 | 53 | 1018.4 |
| 20260506203122 | 42 | 275 | 2.0 | 6.0 | 0.00 | 0.00 | 0.00 | 52 | 1018.4 |
| 20260506202620 | 42 | 205 | 8.0 | 9.0 | 0.00 | 0.00 | 0.00 | 52 | 1018.3 |
| 20260506202116 | 42 | 249 | 5.0 | 9.0 | 0.00 | 0.00 | 0.00 | 52 | 1018.6 |
| 20260506201613 | 43 | 174 | 2.0 | 3.0 | 0.00 | 0.00 | 0.00 | 53 | 1018.2 |
| 20260506201109 | 42 | 227 | 4.0 | 8.0 | 0.00 | 0.00 | 0.00 | 52 | 1018.3 |
| 20260506200606 | 42 | 243 | 4.0 | 6.0 | 0.00 | 0.00 | 0.00 | 53 | 1018.5 |
| 20260506195559 | 42 | 208 | 3.0 | 6.0 | 0.00 | 0.00 | 0.00 | 54 | 1018.3 |
| 20260506195056 | 42 | 232 | 3.0 | 7.0 | 0.00 | 0.00 | 0.00 | 54 | 1018.6 |
| 20260506194554 | 42 | 222 | 6.0 | 7.0 | 0.00 | 0.00 | 0.00 | 52 | 1018.6 |
| 20260506194049 | 42 | 228 | 4.0 | 9.0 | 0.00 | 0.00 | 0.00 | 53 | 1018.2 |
| 20260506193547 | 42 | 231 | 3.0 | 8.0 | 0.00 | 0.00 | 0.00 | 53 | 1018.4 |
| 20260506193044 | 42 | 189 | 1.0 | 11.0 | 0.00 | 0.00 | 0.00 | 53 | 1018.6 |
| 20260506192541 | 42 | 226 | 1.0 | 3.0 | 0.00 | 0.00 | 0.00 | 53 | 1018.5 |
| 20260506192037 | 41 | 212 | 5.0 | 9.0 | 0.00 | 0.00 | 0.00 | 53 | 1018.6 |
| 20260506191534 | 42 | 223 | 6.0 | 9.0 | 0.00 | 0.00 | 0.00 | 54 | 1018.6 |
| 20260506191029 | 42 | 170 | 8.0 | 11.0 | 0.00 | 0.00 | 0.00 | 53 | 1018.5 |
| 20260506190527 | 42 | 229 | 8.0 | 9.0 | 0.00 | 0.00 | 0.00 | 53 | 1018.3 |
| 20260506190024 | 42 | 280 | 1.0 | 10.0 | 0.00 | 0.00 | 0.00 | 53 | 1018.5 |
| 20260506185521 | 42 | 253 | 3.0 | 5.0 | 0.00 | 0.00 | 0.00 | 53 | 1018.4 |
| 20260506185017 | 42 | 217 | 5.0 | 10.0 | 0.00 | 0.00 | 0.00 | 53 | 1018.3 |
| 20260506184515 | 42 | 277 | 3.0 | 7.0 | 0.00 | 0.00 | 0.00 | 53 | 1018.6 |
| 20260506184012 | 42 | 214 | 3.0 | 8.0 | 0.00 | 0.00 | 0.00 | 53 | 1018.5 |
| 20260506183508 | 42 | 159 | 3.0 | 7.0 | 0.00 | 0.00 | 0.00 | 53 | 1018.8 |
| 20260506183005 | 42 | 183 | 3.0 | 7.0 | 0.00 | 0.00 | 0.00 | 53 | 1018.5 |
| 20260506182502 | 42 | 217 | 5.0 | 8.0 | 0.00 | 0.00 | 0.00 | 53 | 1018.5 |
| 20260506181959 | 41 | 150 | 4.0 | 6.0 | 0.00 | 0.00 | 0.00 | 55 | 1018.5 |
| 20260506181457 | 41 | 271 | 3.0 | 8.0 | 0.00 | 0.00 | 0.00 | 54 | 1018.8 |
| 20260506180954 | 41 | 250 | 1.0 | 8.0 | 0.00 | 0.00 | 0.00 | 55 | 1018.6 |
| 20260506180450 | 42 | 254 | 4.0 | 5.0 | 0.00 | 0.00 | 0.00 | 54 | 1018.4 |
| 20260506175947 | 41 | 210 | 3.0 | 6.0 | 0.00 | 0.00 | 0.00 | 56 | 1018.8 |
| 20260506175444 | 41 | 251 | 3.0 | 16.0 | 0.00 | 0.00 | 0.00 | 55 | 1018.9 |
| 20260506174940 | 41 | 161 | 3.0 | 8.0 | 0.00 | 0.00 | 0.00 | 55 | 1018.8 |
| 20260506174438 | 41 | 222 | 5.0 | 8.0 | 0.00 | 0.00 | 0.00 | 56 | 1018.8 |
| 20260506173934 | 41 | 204 | 6.0 | 10.0 | 0.00 | 0.00 | 0.00 | 54 | 1018.6 |
| 20260506173431 | 42 | 239 | 2.0 | 2.0 | 0.00 | 0.00 | 0.00 | 55 | 1018.9 |
| 20260506172923 | 41 | 218 | 4.0 | 7.0 | 0.00 | 0.00 | 0.00 | 55 | 1018.9 |
| 20260506172420 | 40 | 180 | 3.0 | 7.0 | 0.00 | 0.00 | 0.00 | 56 | 1018.8 |
| 20260506171917 | 40 | 221 | 3.0 | 10.0 | 0.00 | 0.00 | 0.00 | 55 | 1018.8 |
| 20260506171414 | 40 | 238 | 5.0 | 10.0 | 0.00 | 0.00 | 0.00 | 56 | 1018.8 |
| 20260506170912 | 40 | 170 | 8.0 | 10.0 | 0.00 | 0.00 | 0.00 | 54 | 1018.8 |
| 20260506170407 | 40 | 253 | 5.0 | 8.0 | 0.00 | 0.00 | 0.00 | 55 | 1018.9 |
| 20260506165901 | 40 | 211 | 3.0 | 13.0 | 0.00 | 0.00 | 0.00 | 55 | 1019.0 |
| 20260506165359 | 40 | 249 | 5.0 | 9.0 | 0.00 | 0.00 | 0.00 | 54 | 1019.0 |
| 20260506164855 | 40 | 245 | 4.0 | 6.0 | 0.00 | 0.00 | 0.00 | 54 | 1018.9 |
| 20260506164351 | 40 | 111 | 1.0 | 7.0 | 0.00 | 0.00 | 0.00 | 56 | 1018.9 |
| 20260506163849 | 40 | 234 | 7.0 | 13.0 | 0.00 | 0.00 | 0.00 | 55 | 1018.9 |
| 20260506163344 | 40 | 249 | 5.0 | 16.0 | 0.00 | 0.00 | 0.00 | 55 | 1018.9 |
| 20260506162839 | 39 | 259 | 1.0 | 8.0 | 0.00 | 0.00 | 0.00 | 55 | 1018.8 |
| 20260506162337 | 40 | 242 | 5.0 | 13.0 | 0.00 | 0.00 | 0.00 | 55 | 1019.0 |
| 20260506161829 | 39 | 229 | 4.0 | 10.0 | 0.00 | 0.00 | 0.00 | 56 | 1018.8 |
| 20260506161326 | 39 | 238 | 4.0 | 8.0 | 0.00 | 0.00 | 0.00 | 57 | 1018.9 |
| 20260506160823 | 39 | 149 | 4.0 | 13.0 | 0.00 | 0.00 | 0.00 | 57 | 1019.0 |
| 20260506160320 | 39 | 236 | 7.0 | 8.0 | 0.00 | 0.00 | 0.00 | 57 | 1018.9 |
| 20260506155818 | 40 | 219 | 1.0 | 6.0 | 0.00 | 0.00 | 0.00 | 57 | 1018.8 |
| 20260506155314 | 40 | 189 | 3.0 | 7.0 | 0.00 | 0.00 | 0.00 | 56 | 1018.9 |
| 20260506153427 | 40 | 218 | 3.0 | 11.0 | 0.00 | 0.00 | 0.00 | 56 | 1018.8 |
| 20260506152925 | 40 | 254 | 5.0 | 5.0 | 0.00 | 0.00 | 0.00 | 54 | 1018.8 |
| 20260506152421 | 40 | 236 | 4.0 | 10.0 | 0.00 | 0.00 | 0.00 | 54 | 1018.8 |
| 20260506151920 | 40 | 192 | 6.0 | 8.0 | 0.00 | 0.00 | 0.00 | 54 | 1018.6 |
| 20260506151417 | 40 | 109 | 3.0 | 6.0 | 0.00 | 0.00 | 0.00 | 55 | 1018.5 |
| 20260506150914 | 40 | 202 | 5.0 | 10.0 | 0.00 | 0.00 | 0.00 | 55 | 1018.6 |
| 20260506150410 | 40 | 186 | 5.0 | 15.0 | 0.00 | 0.00 | 0.00 | 55 | 1018.6 |
| 20260506145908 | 40 | 225 | 5.0 | 10.0 | 0.00 | 0.00 | 0.00 | 54 | 1018.9 |
| 20260506145403 | 40 | 198 | 7.0 | 15.0 | 0.00 | 0.00 | 0.00 | 56 | 1018.9 |
| 20260506144901 | 40 | 244 | 2.0 | 7.0 | 0.00 | 0.00 | 0.00 | 55 | 1018.6 |
| 20260506144357 | 40 | 198 | 7.0 | 15.0 | 0.00 | 0.00 | 0.00 | 54 | 1018.6 |
| 20260506143856 | 40 | 288 | 3.0 | 9.0 | 0.00 | 0.00 | 0.00 | 56 | 1018.8 |
| 20260506143352 | 40 | 214 | 7.0 | 10.0 | 0.00 | 0.00 | 0.00 | 55 | 1018.8 |
| 20260506142851 | 40 | 235 | 9.0 | 13.0 | 0.00 | 0.00 | 0.00 | 55 | 1018.6 |
| 20260506142348 | 40 | 255 | 1.0 | 6.0 | 0.00 | 0.00 | 0.00 | 57 | 1018.6 |
| 20260506141847 | 40 | 265 | 3.0 | 5.0 | 0.00 | 0.00 | 0.00 | 55 | 1018.6 |
| 20260506141344 | 40 | 271 | 2.0 | 10.0 | 0.00 | 0.00 | 0.00 | 55 | 1018.6 |
| 20260506140842 | 40 | 230 | 3.0 | 8.0 | 0.00 | 0.00 | 0.00 | 56 | 1018.6 |
| 20260506140339 | 39 | 229 | 4.0 | 10.0 | 0.00 | 0.00 | 0.00 | 57 | 1018.8 |
| 20260506135836 | 39 | 321 | 3.0 | 9.0 | 0.00 | 0.00 | 0.00 | 58 | 1018.6 |
| 20260506135332 | 40 | 200 | 5.0 | 10.0 | 0.00 | 0.00 | 0.00 | 58 | 1018.6 |
| 20260506134829 | 39 | 168 | 2.0 | 6.0 | 0.00 | 0.00 | 0.00 | 59 | 1018.3 |
| 20260506134325 | 39 | 199 | 4.0 | 9.0 | 0.00 | 0.00 | 0.00 | 60 | 1018.4 |
| 20260506133823 | 39 | 229 | 6.0 | 8.0 | 0.00 | 0.00 | 0.00 | 59 | 1018.5 |
| 20260506133319 | 39 | 305 | 3.0 | 6.0 | 0.00 | 0.00 | 0.00 | 59 | 1018.3 |
| 20260506132816 | 39 | 200 | 3.0 | 8.0 | 0.00 | 0.00 | 0.00 | 60 | 1018.4 |
| 20260506132313 | 39 | 9 | 1.0 | 8.0 | 0.00 | 0.00 | 0.00 | 60 | 1018.4 |
| 20260506131811 | 39 | 183 | 2.0 | 8.0 | 0.00 | 0.00 | 0.00 | 61 | 1018.2 |
| 20260506131307 | 39 | 190 | 3.0 | 5.0 | 0.00 | 0.00 | 0.00 | 60 | 1018.1 |
| 20260506130804 | 38 | 263 | 3.0 | 7.0 | 0.00 | 0.00 | 0.00 | 61 | 1018.1 |
| 20260506130300 | 38 | 36 | 0.0 | 2.0 | 0.00 | 0.00 | 0.00 | 62 | 1018.0 |
| 20260506125759 | 37 | 214 | 4.0 | 5.0 | 0.00 | 0.00 | 0.00 | 64 | 1018.1 |
| 20260506125256 | 37 | 283 | 3.0 | 7.0 | 0.00 | 0.00 | 0.00 | 64 | 1018.0 |
| 20260506124755 | 37 | 234 | 4.0 | 6.0 | 0.00 | 0.00 | 0.00 | 64 | 1017.7 |
| 20260506124252 | 36 | 266 | 2.0 | 3.0 | 0.00 | 0.00 | 0.00 | 65 | 1017.9 |
| 20260506123749 | 36 | 24 | 1.0 | 2.0 | 0.00 | 0.00 | 0.00 | 67 | 1018.0 |
| 20260506123248 | 35 | 307 | 0.0 | 1.0 | 0.00 | 0.00 | 0.00 | 68 | 1017.9 |
| 20260506122744 | 35 | 248 | 1.0 | 2.0 | 0.00 | 0.00 | 0.00 | 68 | 1018.0 |
| 20260506122241 | 35 | 262 | 1.0 | 2.0 | 0.00 | 0.00 | 0.00 | 69 | 1018.0 |
| 20260506121739 | 35 | 217 | 4.0 | 6.0 | 0.00 | 0.00 | 0.00 | 68 | 1017.8 |
| 20260506121236 | 35 | 186 | 2.0 | 5.0 | 0.00 | 0.00 | 0.00 | 68 | 1017.7 |
| 20260506120733 | 34 | 236 | 2.0 | 5.0 | 0.00 | 0.00 | 0.00 | 69 | 1017.7 |
| 20260506120231 | 34 | 340 | 2.0 | 3.0 | 0.00 | 0.00 | 0.00 | 69 | 1017.7 |
| 20260506115729 | 33 | 206 | 3.0 | 3.0 | 0.00 | 0.00 | 0.00 | 71 | 1017.4 |
| 20260506115227 | 33 | 213 | 0.0 | 2.0 | 0.00 | 0.00 | 0.00 | 72 | 1017.5 |
| 20260506114724 | 33 | 252 | 1.0 | 2.0 | 0.00 | 0.00 | 0.00 | 73 | 1017.2 |
| 20260506114221 | 33 | 198 | 0.0 | 2.0 | 0.00 | 0.00 | 0.00 | 73 | 1017.4 |
| 20260506113720 | 32 | 223 | 2.0 | 3.0 | 0.00 | 0.00 | 0.00 | 73 | 1017.2 |
| 20260506113217 | 32 | 210 | 4.0 | 5.0 | 0.00 | 0.00 | 0.00 | 74 | 1017.0 |
| 20260506112713 | 32 | 264 | 0.0 | 1.0 | 0.00 | 0.00 | 0.00 | 75 | 1017.0 |
| 20260506112211 | 32 | 259 | 0.0 | 1.0 | 0.00 | 0.00 | 0.00 | 75 | 1016.9 |
| 20260506111708 | 32 | 235 | 0.0 | 1.0 | 0.00 | 0.00 | 0.00 | 75 | 1017.1 |
| 20260506111206 | 32 | 250 | 1.0 | 1.0 | 0.00 | 0.00 | 0.00 | 75 | 1017.3 |
| 20260506110703 | 32 | 224 | 1.0 | 1.0 | 0.00 | 0.00 | 0.00 | 73 | 1017.3 |
| 20260506110201 | 32 | 244 | 1.0 | 2.0 | 0.00 | 0.00 | 0.00 | 73 | 1017.5 |
| 20260506105657 | 32 | 232 | 1.0 | 2.0 | 0.00 | 0.00 | 0.00 | 74 | 1017.3 |
| 20260506105154 | 32 | 236 | 0.0 | 2.0 | 0.00 | 0.00 | 0.00 | 74 | 1017.3 |
| 20260506104652 | 32 | 235 | 1.0 | 2.0 | 0.00 | 0.00 | 0.00 | 74 | 1017.2 |
| 20260506104149 | 32 | 242 | 1.0 | 2.0 | 0.00 | 0.00 | 0.00 | 74 | 1017.2 |
| 20260506103646 | 32 | 203 | 1.0 | 2.0 | 0.00 | 0.00 | 0.00 | 75 | 1017.2 |
| 20260506103143 | 32 | 212 | 1.0 | 1.0 | 0.00 | 0.00 | 0.00 | 76 | 1016.9 |
| 20260506102642 | 32 | 201 | 1.0 | 1.0 | 0.00 | 0.00 | 0.00 | 74 | 1016.9 |
| 20260506102138 | 32 | 214 | 0.0 | 3.0 | 0.00 | 0.00 | 0.00 | 73 | 1016.9 |
| 20260506101635 | 32 | 237 | 0.0 | 2.0 | 0.00 | 0.00 | 0.00 | 73 | 1016.7 |
| 20260506101132 | 32 | 219 | 1.0 | 2.0 | 0.00 | 0.00 | 0.00 | 74 | 1016.9 |
| 20260506100631 | 32 | 229 | 1.0 | 2.0 | 0.00 | 0.00 | 0.00 | 74 | 1016.9 |
| 20260506100128 | 32 | 226 | 1.0 | 2.0 | 0.00 | 0.00 | 0.00 | 74 | 1017.0 |
| 20260506095627 | 32 | 215 | 1.0 | 2.0 | 0.00 | 0.00 | 0.00 | 75 | 1016.8 |
| 20260506095123 | 32 | 222 | 1.0 | 2.0 | 0.00 | 0.00 | 0.00 | 74 | 1016.7 |
| 20260506094620 | 32 | 246 | 2.0 | 2.0 | 0.00 | 0.00 | 0.00 | 74 | 1016.7 |
| 20260506094118 | 32 | 235 | 1.0 | 1.0 | 0.00 | 0.00 | 0.00 | 75 | 1016.8 |
| 20260506093616 | 31 | 245 | 1.0 | 1.0 | 0.00 | 0.00 | 0.00 | 76 | 1016.5 |
| 20260506093113 | 31 | 226 | 0.0 | 1.0 | 0.00 | 0.00 | 0.00 | 76 | 1016.9 |
| 20260506092611 | 31 | 259 | 0.0 | 0.0 | 0.00 | 0.00 | 0.00 | 76 | 1016.9 |
| 20260506092108 | 31 | 241 | 0.0 | 1.0 | 0.00 | 0.00 | 0.00 | 77 | 1017.1 |
| 20260506091606 | 31 | 232 | 0.0 | 1.0 | 0.00 | 0.00 | 0.00 | 77 | 1016.9 |
| 20260506091103 | 31 | 202 | 0.0 | 1.0 | 0.00 | 0.00 | 0.00 | 77 | 1016.9 |
| 20260506090601 | 32 | 191 | 0.0 | 1.0 | 0.00 | 0.00 | 0.00 | 76 | 1017.0 |
| 20260506090057 | 32 | 191 | 1.0 | 1.0 | 0.00 | 0.00 | 0.00 | 75 | 1016.7 |
| 20260506085554 | 32 | 232 | 0.0 | 0.0 | 0.00 | 0.00 | 0.00 | 75 | 1016.6 |
| 20260506085050 | 32 | 222 | 0.0 | 0.0 | 0.00 | 0.00 | 0.00 | 75 | 1016.5 |
| 20260506084547 | 32 | 235 | 0.0 | 0.0 | 0.00 | 0.00 | 0.00 | 74 | 1016.5 |
| 20260506084043 | 32 | 253 | 0.0 | 1.0 | 0.00 | 0.00 | 0.00 | 74 | 1016.4 |
| 20260506083541 | 32 | 235 | 0.0 | 0.0 | 0.00 | 0.00 | 0.00 | 74 | 1016.6 |
| 20260506083038 | 33 | 240 | 1.0 | 1.0 | 0.00 | 0.00 | 0.00 | 73 | 1016.6 |
| 20260506082535 | 33 | 222 | 1.0 | 1.0 | 0.00 | 0.00 | 0.00 | 73 | 1016.8 |
| 20260506082030 | 32 | 222 | 0.0 | 1.0 | 0.00 | 0.00 | 0.00 | 74 | 1016.8 |
| 20260506081529 | 32 | 214 | 0.0 | 1.0 | 0.00 | 0.00 | 0.00 | 75 | 1016.6 |
| 20260506081026 | 32 | 242 | 1.0 | 2.0 | 0.00 | 0.00 | 0.00 | 76 | 1016.7 |
| 20260506080523 | 32 | 202 | 1.0 | 1.0 | 0.00 | 0.00 | 0.00 | 76 | 1016.5 |